Weather Roundup
Issued by NWS

Home | Current Version | Previous Version | Graphics & Text | Print | Product List | Glossary Off
Versions: 1 2 3 4 5 6 7 8 9 10 11 12 13 14 15 16 17 18 19 20 21 22 23 24 25 26 27 28 29 30 31 32 33 34 35 36 37 38 39 40 41 42 43 44 45 46 47 48 49 50

000
NZUS93 KARX 251210
HRRWXR

CURRENT HOURLY OBSERVATIONS ACROSS
MUCH OF THE UPPER MISSISSIPPI VALLEY
NATIONAL WEATHER SERVICE LA CROSSE WI
700 AM CDT TUE JUL 25 2017


...SOUTHEAST MINNESOTA...


CITY           SKY/WX    TMP DP  RH WIND       PRES   REMARKS
ROCHESTER      CLOUDY    62  60  93 SE8       30.12R
ROCHESTER/MAYO CLOUDY    64  60  87 E6        30.13R
WINONA         CLOUDY    63  59  88 SE3       30.13R
AUSTIN         LGT RAIN  63  61  94 S9        30.07S
ALBERT LEA     MOCLDY    64  61  88 S13G18    30.06S
DODGE CENTER   LGT RAIN  63  61  94 E3        30.12R
PRESTON        CLOUDY    61  57  88 SE9       30.11F
OWATONNA       CLOUDY    64  61  88 SE13      30.06F
FARIBAULT      CLOUDY    64  61  88 E7        30.08R THUNDER
$$

...ELSEWHERE IN MINNESOTA...


CITY           SKY/WX    TMP DP  RH WIND       PRES   REMARKS
MINNEAPOLIS    CLOUDY    68  61  78 S13       30.04S
INTNL FALLS    CLOUDY    62  58  86 SE7       29.94F
DULUTH         MOSUNNY   59  58  96 SE7       30.04S
RED WING       CLOUDY    66  59  77 SW8       30.06S
REDWOOD FALLS  LGT RAIN  67  64  90 SE25G36   29.92F FOG
MANKATO        NOT AVBL
WORTHINGTON    CLOUDY    67  63  87 S17G24    29.97S
FAIRMONT       PTCLDY    66  64  93 S17       30.01S
$$

...SOUTHWEST WISCONSIN...


CITY           SKY/WX    TMP DP  RH WIND       PRES   REMARKS
LA CROSSE      CLOUDY    66  59  78 S8        30.13R
PRAIRIE DU CHI MOSUNNY   62  58  90 CALM      30.14S
BOSCOBEL       SUNNY     61  59  93 CALM      30.16R
LONE ROCK      MOSUNNY   60  57  89 E5        30.16S
PLATTEVILLE    SUNNY     59  59 100 E5        30.17R
FORT MC COY    MOSUNNY   60  58  91 CALM      30.15R
CAMP DOUGLAS   MOSUNNY   58  57  97 SE5       30.14S
MAUSTON-NEW LI MOSUNNY   58  56  92 SE5       30.15S
VIROQUA        FAIR      59  59 100 CALM      30.15S
WIS DELLS      CLOUDY    58  56  91 S7        30.16F
$$

...ELSEWHERE IN WISCONSIN...


CITY           SKY/WX    TMP DP  RH WIND       PRES   REMARKS
MILWAUKEE      MOSUNNY   64  58  80 CALM      30.19R
MADISON        MOSUNNY   59  56  89 SE3       30.17S
GREEN BAY      CLOUDY    57  56  96 CALM      30.19R
EAU CLAIRE     CLOUDY    64  59  83 S7        30.11R
BLACK RVR FLS  FAIR      58  58 100 CALM      30.15R
MEDFORD        LGT RAIN  58  53  81 S5        30.17R
WAUSAU         PTSUNNY   57  52  83 E7        30.14F
WIS RAPIDS     MOSUNNY   57  54  89 SE5       30.17R
MARSHFIELD     CLOUDY    58  54  86 S6        30.16R
RICE LAKE      LGT RAIN  63  59  88 SE8       30.10F
$$

...NORTHEAST IOWA...


CITY           SKY/WX    TMP DP  RH WIND       PRES   REMARKS
WATERLOO       NOT AVBL
DUBUQUE        SUNNY     60  59  96 S9        30.16R FOG
DECORAH        MOSUNNY   61  59  94 SE8G15    30.11F
MASON CITY     PTCLDY    63  61  93 S10       30.09S
CHARLES CITY   SUNNY     63  63 100 S10       30.11S
OELWEIN          N/A    N/A N/A N/A MISG        N/A
$$

...ELSEWHERE IN IOWA...


CITY           SKY/WX    TMP DP  RH WIND       PRES   REMARKS
DES MOINES     PTCLDY    68  65  90 SE6       30.08R
IOWA CITY      NOT AVBL
FORT DODGE     PTCLDY    66  63  88 S9        30.07R
MARSHALLTOWN   CLEAR     64  63  96 SE9       30.10R
CEDAR RAPIDS   NOT AVBL
$$

...NORTHERN ILLINOIS...


CITY           SKY/WX    TMP DP  RH WIND       PRES   REMARKS
CHICAGO-OHARE  MOSUNNY   66  62  87 CALM      30.18R
CHICAGO-MIDWAY MOSUNNY   67  60  78 SE5       30.18R
MOLINE         SUNNY     62  59  90 E3        30.14R
ROCKFORD       SUNNY     63  59  87 CALM      30.19R
PEORIA         SUNNY     65  62  90 E7        30.15R
$$

NOTE: "FAIR" INDICATES FEW OR NO CLOUDS BELOW 12,000 FEET WITH NO
SIGNIFICANT WEATHER AND/OR OBSTRUCTIONS TO VISIBILITY. WIND
SPEEDS ARE IN MILES-PER-HOUR.




USA.gov is the U.S. government's official web portal to all federal, state and local government web resources and services.